CST,Max TemperatureF,Mean TemperatureF,Min TemperatureF,Max Dew PointF,MeanDew PointF,Min DewpointF,Max Humidity, Mean Humidity, Min Humidity, Max Sea Level PressureIn, Mean Sea Level PressureIn, Min Sea Level PressureIn, Max VisibilityMiles, Mean VisibilityMiles, Min VisibilityMiles, Max Wind SpeedMPH, Mean Wind SpeedMPH, Max Gust SpeedMPH,PrecipitationIn, CloudCover, Events, WindDirDegrees
2014-1-1,42,36,30,32,30,27,93,80,61,30.25,30.13,29.99,10,10,10,17,8,,0.00,2,Rain,189
2014-1-2,35,24,12,34,18,9,100,84,68,30.44,30.14,29.93,10,8,2,25,12,32,0.02,6,Rain-Snow,328
2014-1-3,26,16,6,14,10,3,85,74,55,30.55,30.39,30.17,10,10,10,16,7,21,0.00,0,,179
2014-1-4,37,30,23,27,20,12,75,62,48,30.16,30.06,29.99,10,10,10,23,13,31,0.00,4,,188
2014-1-5,37,21,5,34,25,-2,100,92,70,30.16,29.87,29.62,10,4,0,31,8,45,0.43,8,Rain-Snow,359
2014-1-6,5,0,-5,-2,-12,-17,78,66,60,30.50,30.41,30.18,10,10,2,25,18,33,0.14,4,,283
2014-1-7,17,8,-2,9,-1,-11,85,67,53,30.51,30.42,30.33,10,10,10,16,10,23,0.03,2,,197
2014-1-8,32,24,15,27,19,9,100,73,64,30.47,30.40,30.32,10,10,7,12,5,,0.00,5,,206
2014-1-9,33,28,23,32,28,21,100,91,75,30.47,30.36,30.21,10,7,2,9,4,,0.03,8,Rain-Snow,108
2014-1-10,44,38,32,45,38,32,100,94,87,30.20,29.95,29.62,10,6,2,20,7,26,0.33,8,Rain-Thunderstorm,157
2014-1-11,44,38,33,45,36,32,100,92,81,29.89,29.70,29.54,10,9,2,23,10,26,0.13,5,Rain,248
2014-1-12,48,39,30,36,32,28,100,78,61,30.04,29.93,29.82,10,10,5,20,7,26,0.03,0,,178
2014-1-13,53,43,33,45,37,30,93,74,61,29.86,29.76,29.68,10,10,10,21,13,26,0.00,2,,230
2014-1-14,46,37,28,34,30,19,100,82,60,30.03,29.90,29.78,10,9,2,24,7,30,0.00,3,,265
2014-1-15,30,24,19,23,19,14,93,75,59,30.16,30.11,30.03,10,9,4,15,10,18,0.00,5,Snow,296
2014-1-16,35,27,19,32,25,18,93,80,64,30.05,29.83,29.71,10,9,0,18,10,25,0.00,7,Snow,204
2014-1-17,33,25,17,32,14,9,100,75,63,30.12,30.00,29.76,10,9,2,28,14,31,0.00,8,Snow,278
2014-1-18,35,24,14,32,21,10,93,79,55,30.07,29.89,29.73,10,10,2,22,9,29,0.00,6,Rain-Snow,203
2014-1-19,39,31,23,30,25,19,93,76,61,30.07,29.93,29.76,10,10,10,23,16,38,0.00,3,,241
2014-1-20,44,37,30,32,30,25,100,79,61,29.95,29.88,29.76,10,10,7,14,7,,0.00,2,Rain,283
2014-1-21,32,20,8,32,13,3,100,78,62,30.29,30.14,29.83,10,8,2,26,10,36,0.02,3,Rain-Snow,338
2014-1-22,26,16,5,19,11,3,92,77,63,30.27,30.14,30.03,10,9,1,20,6,29,0.00,6,Snow,233
2014-1-23,15,9,3,7,-2,-6,78,65,57,30.72,30.58,30.25,10,10,10,22,13,31,0.00,0,,310
2014-1-24,28,14,1,10,3,-4,85,59,43,30.71,30.32,29.82,10,10,10,28,10,36,0.00,1,,211
2014-1-25,41,29,17,30,14,5,81,53,32,29.99,29.80,29.66,10,10,10,36,19,46,0.00,4,Snow,274
2014-1-26,51,35,19,32,21,5,93,57,34,29.94,29.69,29.57,10,10,10,38,9,47,0.00,4,,227
2014-1-27,26,16,5,18,-3,-8,69,49,38,30.50,30.30,29.88,10,10,10,32,20,45,0.00,2,,329
2014-1-28,17,9,1,0,-6,-9,78,56,30,30.53,30.45,30.38,10,10,10,9,3,,0.00,0,,344
2014-1-29,30,18,5,5,1,-4,78,51,29,30.39,30.33,30.23,10,10,10,15,4,25,0.00,0,,220
2014-1-30,37,27,17,10,7,5,58,42,26,30.22,30.05,29.88,10,10,10,29,13,34,0.00,1,,186
2014-1-31,42,37,32,34,16,9,100,50,27,30.12,30.06,29.99,10,8,1,13,4,,0.02,7,Rain,135